Ketchikan, AK

8:21 AM AKDT on October 16, 2018 (GMT -0800)
Ketchikan International

Weather History for PAKT - October, 2018

Change the Weather History Date:

Sunday, October 7, 2018

  Actual Average Record
Temperature  
Mean Temperature 52 °F -  
Max Temperature 54 °F 54 °F 64 °F (1964)
Min Temperature 51 °F 44 °F 32 °F (1959)
Degree Days  
Heating Degree Days 13    
Growing Degree Days 2 (Base 50)    
Moisture  
Dew Point 50 °F    
Average Humidity 92    
Maximum Humidity 96    
Minimum Humidity 88    
Precipitation  
Precipitation 0.39 in - - ()
Sea Level Pressure  
Sea Level Pressure 29.96 in    
Wind  
Wind Speed 3 mph (SE)    
Max Wind Speed 7 mph    
Max Gust Speed -    
Visibility 4 miles    
Events Rain    
Averages and records for this station are not official NWS values.
T = Trace of Precipitation, MM = Missing Value Source: NWS Daily Summary

Daily Weather History Graph

Daily Weather History Graph

Search for Another Location

Airport or City:

Astronomy

Oct. 07, 2018 Rise Set
Actual Time 7:01 AM AKDT 6:06 PM AKDT
Civil Twilight 6:24 AM AKDT 6:43 PM AKDT
Nautical Twilight 5:42 AM AKDT 7:25 PM AKDT
Astronomical Twilight 4:59 AM AKDT 8:08 PM AKDT
Moon 4:43 AM AKDT (10/7) 6:09 PM AKDT (10/7)
Length of Visible Light 12h 18m
Length of Day
11h 05m
Waning Crescent, 2% of the Moon is Illuminated
Oct 7
Waning Crescent
Oct 8
New
Oct 16
First Quarter
Oct 24
Full
Oct 31
Last Quarter

Hourly Weather History & Observations

Time (AKDT) Temp. Dew Point Humidity Pressure Visibility Wind Dir Wind Speed Gust Speed Precip Events Conditions
12:27 AM 51.1 °F 48.9 °F 92% 30.00 in 2.0 mi SSE 4.6 mph - 0.02 in Rain Light Rain
12:37 AM 51.1 °F 48.9 °F 92% 30.00 in 1.8 mi SE 5.8 mph - 0.02 in Rain Light Rain
12:53 AM 51.1 °F 48.9 °F 92% 30.00 in 1.8 mi SSE 4.6 mph - 0.03 in Rain Light Rain
1:01 AM 51.1 °F 48.9 °F 92% 30.00 in 2.0 mi SSE 4.6 mph - 0.00 in Rain Light Rain
1:53 AM 51.1 °F 48.9 °F 92% 29.99 in 2.5 mi Calm Calm - 0.02 in   Overcast
2:01 AM 51.1 °F 48.9 °F 92% 29.99 in 2.5 mi SSE 3.5 mph - 0.00 in Rain Light Rain
2:14 AM 51.1 °F 48.9 °F 92% 29.97 in 2.5 mi South 3.5 mph - 0.00 in   Overcast
2:29 AM 51.1 °F 48.9 °F 92% 29.97 in 3.0 mi South 3.5 mph - 0.01 in Rain Light Rain
2:53 AM 51.1 °F 48.9 °F 92% 29.98 in 4.0 mi Calm Calm - 0.01 in Rain Light Rain
3:00 AM 51.1 °F 48.9 °F 92% 29.98 in 3.0 mi Calm Calm - 0.00 in Rain Light Rain
3:15 AM 51.1 °F 48.9 °F 92% 29.97 in 2.5 mi SSE 3.5 mph - 0.01 in Rain Light Rain
3:28 AM 51.1 °F 48.9 °F 92% 29.97 in 3.0 mi SE 4.6 mph - 0.02 in Rain Light Rain
3:33 AM 51.1 °F 48.9 °F 92% 29.97 in 2.5 mi SE 3.5 mph - 0.02 in Rain Light Rain
3:42 AM 51.1 °F 48.9 °F 92% 29.97 in 2.5 mi Calm Calm - 0.02 in Rain Light Rain
3:50 AM 51.8 °F 50.0 °F 94% 29.96 in 3.0 mi Calm Calm - 0.02 in Rain Light Rain
3:53 AM 51.1 °F 50.0 °F 96% 29.97 in 3.0 mi Calm Calm - 0.03 in Rain Light Rain
4:23 AM 51.1 °F 50.0 °F 96% 29.97 in 2.5 mi Calm Calm - 0.00 in Rain Light Rain
4:53 AM 51.1 °F 50.0 °F 96% 29.97 in 2.5 mi Calm Calm - 0.01 in Rain Light Rain
5:04 AM 51.1 °F 50.0 °F 96% 29.97 in 3.0 mi Calm Calm - 0.01 in Rain Light Rain
5:53 AM 51.1 °F 48.9 °F 92% 29.98 in 3.0 mi Calm Calm - 0.04 in Rain Light Rain
6:04 AM 51.1 °F 48.9 °F 92% 29.98 in 4.0 mi Calm Calm - 0.00 in Rain Light Rain
6:53 AM 51.8 °F 48.2 °F 88% 29.97 in 5.0 mi Calm Calm - N/A Rain Light Rain
7:53 AM 51.8 °F 48.2 °F 88% 29.97 in 5.0 mi SE 3.5 mph - N/A   Overcast
8:53 AM 51.8 °F 48.2 °F 88% 29.97 in 7.0 mi SSE 3.5 mph - N/A   Overcast
9:53 AM 51.8 °F 50.0 °F 94% 29.98 in 7.0 mi SSE 3.5 mph - N/A   Overcast
10:53 AM 51.8 °F 50.0 °F 94% 29.97 in 7.0 mi SSE 4.6 mph - N/A   Overcast
11:53 AM 53.6 °F 50.0 °F 88% 29.98 in 7.0 mi SE 5.8 mph - N/A   Overcast
12:53 PM 53.6 °F 50.0 °F 88% 29.97 in 5.0 mi SE 5.8 mph - N/A Rain Light Rain
1:53 PM 53.1 °F 50.0 °F 89% 29.97 in 5.0 mi Calm Calm - 0.02 in Rain Light Rain
2:53 PM 53.6 °F 51.8 °F 94% 29.96 in 3.0 mi SE 4.6 mph - N/A Rain Light Rain
3:53 PM 53.6 °F 51.8 °F 94% 29.96 in 9.0 mi ESE 4.6 mph - N/A   Overcast
4:53 PM 53.6 °F 50.0 °F 88% 29.94 in 10.0 mi SE 4.6 mph - N/A   Overcast
5:53 PM 53.6 °F 50.0 °F 88% 29.93 in 5.0 mi SE 5.8 mph - N/A Rain Light Rain
6:53 PM 53.6 °F 50.0 °F 88% 29.92 in 5.0 mi SSE 6.9 mph - N/A Rain Light Rain
7:53 PM 53.6 °F 50.0 °F 88% 29.93 in 3.0 mi East 3.5 mph - N/A Rain Light Rain
8:53 PM 51.8 °F 50.0 °F 94% 29.92 in 4.0 mi ESE 4.6 mph - N/A Rain Light Rain
9:13 PM 52.0 °F 50.0 °F 93% 29.92 in 6.0 mi ESE 3.5 mph - 0.01 in Rain Light Rain
9:50 PM 51.8 °F 50.0 °F 94% 29.91 in 3.0 mi Calm Calm - 0.07 in Rain Rain
9:53 PM 52.0 °F 50.0 °F 93% 29.92 in 3.0 mi Calm Calm - 0.08 in Rain Rain
10:20 PM 52.0 °F 50.0 °F 93% 29.92 in 5.0 mi Calm Calm - 0.03 in Rain Light Rain
10:36 PM 52.0 °F 50.0 °F 93% 29.92 in 2.5 mi Calm Calm - 0.05 in Rain Rain
10:43 PM 52.0 °F 50.0 °F 93% 29.92 in 2.0 mi Calm Calm - 0.08 in Rain Rain
10:53 PM 52.0 °F 50.0 °F 93% 29.92 in 2.5 mi SSE 3.5 mph - 0.11 in Rain Rain
11:02 PM 52.0 °F 50.0 °F 93% 29.91 in 4.0 mi SSE 3.5 mph - 0.01 in Rain Light Rain
11:53 PM 52.0 °F 50.0 °F 93% 29.92 in 4.0 mi SSE 3.5 mph - 0.04 in Rain Light Rain